Location: Unspecified
(0.0000°N, 0.0000°E)
Time: 04:55:00
(UTC+00:00)

Vanguard 2 Rocket - All Passes

Search period start: 21 May 2026 00:00
Search period end: 31 May 2026 00:00
Orbit: 553 x 3286 km, 32.9° (Epoch: 20 May)

Date Brightness Start Highest point End Pass type
(mag) Time Alt. Az. Time Alt. Az. Time Alt. Az.
21 May - 04:43:36 10° SW 04:47:35 46° SE 04:53:09 10° ENE visible
21 May - 06:56:02 10° W 07:00:50 28° NNW 07:08:06 10° NNE daylight
21 May - 09:13:53 10° NNW 09:17:49 13° N 09:22:31 10° NNE daylight
21 May - 11:31:33 10° NNW 11:38:52 15° NNE 11:47:27 10° NE daylight
21 May - 13:45:27 10° NNW 14:00:51 31° NNE 14:16:54 10° E daylight
21 May - 16:00:37 10° NW 16:20:44 67° NE 16:36:44 10° ESE daylight
21 May - 18:19:35 10° WNW 18:38:07 55° SW 18:50:20 10° SE visible
21 May - 20:46:35 10° WSW 20:53:52 16° SW 20:59:34 10° S visible
22 May - 03:40:12 10° S 03:42:59 18° SE 03:46:07 10° E visible
22 May - 05:50:55 10° WSW 05:55:16 43° NNW 06:01:57 10° NE daylight
22 May - 08:06:56 10° NW 08:10:40 14° NNW 08:15:19 10° NNE daylight
22 May - 10:26:33 10° N 10:30:01 11° N 10:33:53 10° NNE daylight
22 May - 12:39:42 10° NNW 12:51:51 23° NNE 13:05:51 10° ENE daylight
22 May - 14:53:40 10° NW 15:12:21 51° NNE 15:29:37 10° ESE daylight
22 May - 17:10:34 10° WNW 17:30:50 76° SW 17:45:20 10° SE daylight
22 May - 19:33:42 10° W 19:47:14 28° SW 19:56:40 10° SSE visible
23 May - 04:46:17 10° SW 04:50:20 89° NNW 04:55:57 10° NE visible
23 May - 07:00:28 10° WNW 07:04:14 17° NNW 07:09:14 10° NNE daylight
23 May - 11:34:37 10° NNW 11:42:54 16° NNE 11:52:48 10° NE daylight
23 May - 13:47:26 10° NNW 14:03:45 38° NNE 14:21:04 10° E daylight
23 May - 16:02:38 10° NW 16:22:58 83° NE 16:39:32 10° ESE daylight
23 May - 18:22:41 10° WNW 18:40:19 43° SW 18:52:33 10° SSE visible
23 May - 20:53:07 10° SW 20:57:01 12° SSW 21:00:26 10° SSW visible
24 May - 03:42:07 10° SSW 03:45:43 35° SE 03:49:53 10° ENE visible
24 May - 05:54:38 10° W 05:58:26 24° NNW 06:03:41 10° NNE daylight
24 May - 10:30:58 10° N 10:34:13 11° NNE 10:37:48 10° NNE daylight
24 May - 12:41:52 10° NNW 12:55:09 28° NNE 13:10:45 10° E daylight
24 May - 14:55:37 10° NW 15:14:43 64° NE 15:32:45 10° ESE daylight
24 May - 17:13:09 10° WNW 17:32:56 62° SW 17:47:40 10° SE daylight
24 May - 19:38:19 10° WSW 19:49:57 22° SW 19:58:35 10° SSE visible
25 May - 02:38:39 10° S 02:40:56 14° SSE 02:43:11 10° ESE visible
25 May - 04:49:24 10° WSW 04:53:14 43° NNW 04:58:19 10° NE visible
25 May - 11:37:01 10° NNW 11:46:36 19° NNE 11:58:21 10° ENE daylight
25 May - 13:49:23 10° NW 14:06:20 48° NE 14:24:44 10° ESE daylight
25 May - 16:04:53 10° WNW 16:25:04 82° SW 16:42:02 10° SE daylight
25 May - 18:26:19 10° W 18:42:42 34° SW 18:54:39 10° SSE visible
26 May - 03:44:35 10° SW 03:48:31 77° SE 03:52:57 10° ENE visible
26 May - 05:59:22 10° NW 06:01:45 13° NNW 06:04:36 10° N daylight
26 May - 10:33:33 10° N 10:38:14 12° NNE 10:43:37 10° NE daylight
26 May - 12:43:54 10° NNW 12:58:02 34° NNE 13:15:07 10° E daylight
26 May - 14:57:42 10° NW 15:16:53 78° NE 15:35:31 10° ESE daylight
26 May - 17:16:07 10° WNW 17:35:07 49° SW 17:49:51 10° SE daylight
26 May - 19:43:40 10° WSW 19:53:01 17° SSW 20:00:25 10° S visible
27 May - 02:40:11 10° SSW 02:43:53 29° SSE 02:47:21 10° E visible
27 May - 04:53:05 10° W 04:56:17 22° NNW 05:00:10 10° NNE visible
27 May - 11:39:08 10° NNW 11:49:54 24° NNE 12:03:35 10° ENE daylight
27 May - 13:51:25 10° NW 14:08:37 59° NE 14:27:54 10° ESE daylight
27 May - 16:07:26 10° WNW 16:27:10 67° SW 16:44:20 10° SE daylight
27 May - 18:30:35 10° W 18:45:21 27° SSW 18:56:40 10° SSE visible
28 May - 01:36:13 10° S 01:38:48 14° SSE 01:41:06 10° ESE night (unlit)
28 May - 03:47:34 10° WSW 03:51:22 47° NW 03:55:32 10° NE visible
28 May - 10:35:30 10° N 10:41:57 15° NNE 10:49:49 10° NE daylight
28 May - 12:45:55 10° NNW 13:00:33 43° NE 13:18:55 10° E daylight
28 May - 15:00:01 10° NW 15:18:57 87° SW 15:37:59 10° SE daylight
28 May - 17:19:34 10° W 17:37:28 39° SW 17:51:56 10° SSE daylight
28 May - 19:49:39 10° SW 19:56:30 14° SSW 20:02:15 10° S visible
29 May - 02:42:27 10° SW 02:46:45 64° SSE 02:50:39 10° ENE visible
29 May - 04:58:13 10° NW 04:59:27 11° NNW 05:00:45 10° N visible
29 May - 11:41:09 10° NNW 11:52:47 29° NE 12:08:14 10° E daylight
29 May - 13:53:35 10° NW 14:10:45 73° NE 14:30:40 10° ESE daylight
29 May - 16:10:21 10° WNW 16:29:21 54° SW 16:46:27 10° SE daylight
29 May - 18:35:28 10° WSW 18:48:23 22° SSW 18:58:42 10° SSE visible
30 May - 01:37:33 10° SSW 01:41:56 28° SSE 01:45:25 10° E night (unlit)
30 May - 03:51:08 10° W 03:54:16 22° NNW 03:57:34 10° NNE visible
30 May - 10:37:18 10° N 10:45:16 18° NNE 10:55:34 10° ENE daylight
30 May - 12:48:00 10° NW 13:02:49 54° NE 13:22:11 10° ESE daylight
30 May - 15:02:34 10° WNW 15:21:03 72° SW 15:40:12 10° SE daylight
30 May - 17:23:35 10° W 17:40:07 32° SSW 17:53:57 10° SSE daylight
30 May - 19:55:52 10° SW 20:00:20 12° SSW 20:04:17 10° S visible
